Point Lay, AK

4:59 AM AKST on November 23, 2017 (GMT -0900)
Point Lay

Weather History for PPIZ - March, 2014

Change the Weather History Date:

Tuesday, March 18, 2014

  Actual Average Record
Temperature  
Mean Temperature -2 °F -  
Max Temperature 8 °F 0 °F 26 °F (2002)
Min Temperature -11 °F -9 °F -40 °F (2012)
Degree Days  
Heating Degree Days 66    
Moisture  
Dew Point -6 °F    
Average Humidity 79    
Maximum Humidity 85    
Minimum Humidity 71    
Precipitation  
Precipitation 0.00 in - - ()
Sea Level Pressure  
Sea Level Pressure 29.94 in    
Wind  
Wind Speed 11 mph (West)    
Max Wind Speed 26 mph    
Max Gust Speed 26 mph    
Visibility 4 miles    
Events Snow    
Averages and records for this station are not official NWS values.
T = Trace of Precipitation, MM = Missing Value Source: NWS Daily Summary

Daily Weather History Graph

Daily Weather History Graph

Search for Another Location

Airport or City:

Trip Planner

Search our weather history database for the weather conditions in past years. The results will help you decide how hot, cold, wet, or windy it might be!

Date:

Astronomy

Mar. 18, 2014 Rise Set
Actual Time 8:58 AM AKDT 9:03 PM AKDT
Civil Twilight 7:58 AM AKDT 10:03 PM AKDT
Nautical Twilight 6:43 AM AKDT 11:20 PM AKDT
Astronomical Twilight 5:06 AM AKDT 1:00 AM AKDT
Moon No Moon Rise 8:41 AM AKDT (3/18)
Length of Visible Light 14h 04m
Length of Day
12h 04m
Waning Gibbous, 95% of the Moon is Illuminated
Mar 18
Waning Gibbous
Mar 23
Last Quarter
Mar 30
New
Apr 7
First Quarter
Apr 14
Full

Hourly Weather History & Observations

Time (AKDT) Temp. Windchill Dew Point Humidity Pressure Visibility Wind Dir Wind Speed Gust Speed Precip Events Conditions
12:56 AM -5.8 °F -25.2 °F -9.4 °F 84% 29.71 in - NNE 12.7 mph - N/A   Clear
1:56 AM -6.9 °F -27.4 °F -11.9 °F 79% 29.74 in - North 13.8 mph - N/A   Clear
2:56 AM -8.0 °F -26.1 °F -13.0 °F 79% 29.75 in - NNE 10.4 mph - N/A   Clear
3:56 AM -9.4 °F -28.9 °F -14.8 °F 77% 29.74 in - NNE 11.5 mph - N/A   Clear
4:56 AM -9.9 °F -23.4 °F -15.9 °F 75% 29.77 in - NE 5.8 mph - N/A   Clear
5:56 AM -10.8 °F -30.7 °F -17.0 °F 74% 29.77 in - NNE 11.5 mph - N/A   Clear
6:56 AM -11.2 °F -32.1 °F -16.6 °F 77% 29.76 in - NNE 12.7 mph - N/A   Clear
7:56 AM -10.8 °F -28.6 °F -17.0 °F 74% 29.78 in - NNE 9.2 mph - N/A   Clear
8:56 AM -9.9 °F -29.6 °F -15.9 °F 75% 29.78 in 10.0 mi NNE 11.5 mph - N/A   Clear
9:56 AM -8.9 °F -27.2 °F -15.0 °F 75% 29.80 in 10.0 mi NNE 10.4 mph - N/A   Clear
10:56 AM -8.9 °F -23.6 °F -13.9 °F 79% 29.81 in 10.0 mi North 6.9 mph - N/A   Clear
11:56 AM -8.9 °F -22.1 °F -15.0 °F 75% 29.84 in 10.0 mi North 5.8 mph - N/A   Clear
12:56 PM -8.0 °F -27.1 °F -13.0 °F 79% 29.85 in 10.0 mi NNE 11.5 mph - N/A   Mostly Cloudy
1:56 PM -6.0 °F -23.6 °F -10.8 °F 79% 29.87 in 10.0 mi NNE 10.4 mph - N/A   Overcast
2:56 PM -4.0 °F -17.8 °F -9.9 °F 76% 29.89 in 10.0 mi NE 6.9 mph - 0.00 in Snow Light Snow
3:08 PM -2.2 °F - -9.4 °F 71% 29.89 in 5.0 mi Calm Calm - 0.00 in Snow Light Snow
3:56 PM -2.9 °F - -8.0 °F 79% 29.92 in 7.0 mi Calm Calm - 0.00 in   Overcast
4:04 PM -2.2 °F - -7.6 °F 78% 29.91 in 6.0 mi Calm Calm - N/A   Haze
4:44 PM -2.2 °F -15.6 °F -7.6 °F 78% 29.93 in 5.0 mi North 6.9 mph - 0.00 in   Haze
4:56 PM -2.9 °F -13.3 °F -8.0 °F 79% 29.95 in 5.0 mi North 4.6 mph - 0.00 in Snow Light Snow
5:06 PM -2.2 °F -12.5 °F -7.6 °F 78% 29.94 in 4.0 mi North 4.6 mph - 0.00 in Snow Light Snow
5:37 PM -0.4 °F - -7.6 °F 72% 29.95 in 2.5 mi Calm Calm - 0.00 in Snow Light Snow
5:56 PM 0.1 °F - -6.0 °F 75% 29.98 in 2.5 mi Calm Calm - 0.00 in Snow Light Snow
6:12 PM -0.4 °F - -5.8 °F 78% 29.97 in 1.8 mi Calm Calm - 0.00 in Snow Light Snow
6:21 PM -0.4 °F - -5.8 °F 78% 29.97 in 3.0 mi Calm Calm - 0.00 in Snow Light Snow
6:25 PM 1.4 °F - -5.8 °F 72% 29.98 in 1.8 mi Calm Calm - 0.00 in Snow Light Snow
6:28 PM 1.4 °F - -5.8 °F 72% 29.98 in 1.0 mi Calm Calm - 0.00 in Snow Light Snow
6:31 PM 1.4 °F - -5.8 °F 72% 29.98 in 0.8 mi Calm Calm - 0.00 in Snow Light Snow
6:39 PM -0.4 °F -10.4 °F -5.8 °F 78% 29.99 in 1.2 mi South 4.6 mph - 0.00 in Snow Light Snow
6:56 PM 1.4 °F -13.5 °F -2.2 °F 85% 30.00 in 2.0 mi South 9.2 mph - N/A Snow Light Snow
7:10 PM 3.2 °F -11.3 °F -2.2 °F 78% 30.01 in 3.0 mi South 9.2 mph - 0.00 in   Haze
7:15 PM 3.2 °F -12.2 °F -0.4 °F 85% 30.01 in 1.8 mi SSW 10.4 mph - 0.00 in   Overcast
7:18 PM 3.2 °F -12.2 °F -0.4 °F 85% 30.01 in 1.0 mi SSW 10.4 mph - 0.00 in Snow Light Snow
7:27 PM 6.8 °F -12.9 °F 3.2 °F 85% 30.01 in 1.2 mi SW 19.6 mph - 0.00 in Snow Light Snow
7:30 PM 8.6 °F -11.0 °F 5.0 °F 85% 30.01 in 2.0 mi SW 20.7 mph 26.5 mph 0.00 in Snow Light Snow
7:35 PM 8.6 °F -11.0 °F 5.0 °F 85% 30.02 in 1.5 mi SW 20.7 mph - 0.00 in Snow Light Snow
7:49 PM 8.6 °F -10.5 °F 3.2 °F 79% 30.03 in 1.8 mi SW 19.6 mph - 0.00 in Snow Light Snow
7:56 PM 8.1 °F -13.0 °F 3.0 °F 80% 30.04 in 1.5 mi SW 24.2 mph - 0.00 in   Overcast
8:00 PM 6.8 °F -15.1 °F 3.2 °F 85% 30.03 in 1.0 mi SW 25.3 mph - 0.00 in   Overcast
8:11 PM 8.6 °F -11.4 °F 3.2 °F 79% 30.04 in 1.5 mi SW 21.9 mph - 0.00 in   Mostly Cloudy
8:15 PM 6.8 °F -14.7 °F 3.2 °F 85% 30.03 in 1.0 mi SW 24.2 mph - 0.00 in   Mostly Cloudy
8:33 PM 6.8 °F -14.7 °F 1.4 °F 79% 30.04 in 1.5 mi SW 24.2 mph - 0.00 in   Overcast
8:56 PM 6.1 °F -16.5 °F 0.1 °F 77% 30.06 in 1.8 mi SSW 26.5 mph - 0.00 in   Haze
9:14 PM 6.8 °F -15.5 °F -0.4 °F 72% 30.05 in 2.0 mi SSW 26.5 mph - N/A   Haze
9:39 PM 5.0 °F -16.2 °F -0.4 °F 78% 30.08 in 4.0 mi SSW 21.9 mph - N/A   Haze
9:56 PM 5.0 °F -16.2 °F 1.4 °F 85% 30.09 in 6.0 mi SSW 21.9 mph - N/A   Overcast
10:56 PM 6.1 °F -15.7 °F 2.1 °F 84% 30.14 in 4.0 mi SW 24.2 mph - N/A   Overcast
11:56 PM 7.2 °F -13.3 °F 2.1 °F 80% 30.18 in 5.0 mi SW 21.9 mph - 0.00 in Snow Light Snow